Weather History for Thermopolis, WY

Change the Weather History Date:

Friday, April 5, 2013

  Actual Average (KWRL) Record (KWRL)
Temperature  
Mean Temperature 45 °F 43 °F  
Max Temperature 53 °F 57 °F 82 °F (1991)
Min Temperature 37 °F 28 °F 15 °F (1982)
Degree Days  
Heating Degree Days 20 22  
Month to date heating degree days 114  
Since 1 July heating degree days 7000  
Cooling Degree Days 0 0  
Month to date cooling degree days 0  
Year to date cooling degree days 0  
Moisture  
Dew Point 25 °F    
Average Humidity 48    
Maximum Humidity 81    
Minimum Humidity 22    
Precipitation  
Precipitation 0.00 in 0.02 in 0.14 in (1990)
Month to date precipitation 0.08  
Year to date precipitation 0.96  
Sea Level Pressure  
Sea Level Pressure 29.93 in    
Wind  
Wind Speed 13 mph (South)    
Max Wind Speed 33 mph    
Max Gust Speed 44 mph    
Visibility 10 miles    
Events      
T = Trace of Precipitation, MM = Missing Value Source: NWS Daily Summary

Daily Weather History Graph

Daily Weather History Graph

Search for Another Location

Airport:

Trip Planner

Search our weather history database for the weather conditions in past years. The results will help you decide how hot, cold, wet, or windy it might be!

Date:

Astronomy

Apr. 05, 2013 Rise Set
Actual Time 6:47 AM MDT 7:44 PM MDT
Civil Twilight 6:17 AM MDT 8:13 PM MDT
Nautical Twilight 5:43 AM MDT 8:48 PM MDT
Astronomical Twilight 5:07 AM MDT 9:25 PM MDT
Moon 4:04 AM MDT (4/5) 3:04 PM MDT (4/5)
Length of Visible Light 13h 55m
Length of Day
12h 57m
Waning Crescent, 23% of the Moon is Illuminated
Apr 5
Waning Crescent
Apr 10
New
Apr 18
First Quarter
Apr 25
Full
May 2
Last Quarter

Hourly Weather History & Observations

Time (MDT) Temp. Windchill Dew Point Humidity Pressure Visibility Wind Dir Wind Speed Gust Speed Precip Events Conditions
12:15 AM 50.0 °F - 23.0 °F 35% 30.05 in 10.0 mi SSW 11.5 mph - N/A   Clear
12:35 AM 50.0 °F - 23.0 °F 35% 30.04 in 10.0 mi SSW 12.7 mph - N/A   Scattered Clouds
12:55 AM 50.0 °F - 23.0 °F 35% 30.03 in 10.0 mi South 13.8 mph - N/A   Mostly Cloudy
1:15 AM 48.2 °F - 23.0 °F 37% 30.02 in 10.0 mi South 10.4 mph 16.1 mph N/A   Scattered Clouds
1:35 AM 50.0 °F - 23.0 °F 35% 30.01 in 10.0 mi South 13.8 mph - N/A   Clear
1:55 AM 48.2 °F - 23.0 °F 37% 30.01 in 10.0 mi South 11.5 mph 18.4 mph N/A   Clear
2:15 AM 48.2 °F - 23.0 °F 37% 30.00 in 10.0 mi SSE 12.7 mph 19.6 mph N/A   Clear
2:35 AM 50.0 °F - 23.0 °F 35% 30.00 in 10.0 mi SSE 18.4 mph 31.1 mph N/A   Clear
2:55 AM 48.2 °F - 23.0 °F 37% 30.00 in 10.0 mi SSE 12.7 mph - N/A   Clear
3:15 AM 46.4 °F 42.9 °F 23.0 °F 40% 29.99 in 10.0 mi SE 6.9 mph - N/A   Clear
3:35 AM 46.4 °F 44.3 °F 23.0 °F 40% 29.99 in 10.0 mi SE 4.6 mph - N/A   Scattered Clouds
3:55 AM 46.4 °F 41.1 °F 23.0 °F 40% 29.98 in 10.0 mi SSE 11.5 mph - N/A   Scattered Clouds
4:15 AM 46.4 °F 40.7 °F 23.0 °F 40% 29.97 in 10.0 mi SSE 12.7 mph 20.7 mph N/A   Scattered Clouds
4:35 AM 48.2 °F - 23.0 °F 37% 29.97 in 10.0 mi SSE 13.8 mph 18.4 mph N/A   Scattered Clouds
4:55 AM 46.4 °F 41.1 °F 23.0 °F 40% 29.96 in 10.0 mi SSE 11.5 mph - N/A   Scattered Clouds
5:15 AM 44.6 °F 40.2 °F 23.0 °F 43% 29.96 in 10.0 mi SE 8.1 mph - N/A   Clear
5:35 AM 44.6 °F 40.2 °F 23.0 °F 43% 29.95 in 10.0 mi SE 8.1 mph - N/A   Scattered Clouds
6:15 AM 42.8 °F 37.5 °F 24.8 °F 49% 29.94 in 10.0 mi SE 9.2 mph - N/A   Clear
6:35 AM 42.8 °F 38.0 °F 23.0 °F 46% 29.94 in 10.0 mi SE 8.1 mph - N/A   Clear
6:55 AM 42.8 °F 36.2 °F 24.8 °F 49% 29.93 in 10.0 mi SE 12.7 mph - N/A   Scattered Clouds
7:15 AM 42.8 °F 38.6 °F 24.8 °F 49% 29.93 in 10.0 mi SE 6.9 mph - N/A   Mostly Cloudy
7:35 AM 42.8 °F 37.5 °F 23.0 °F 46% 29.93 in 10.0 mi SE 9.2 mph - N/A   Scattered Clouds
7:55 AM 42.8 °F 39.3 °F 23.0 °F 46% 29.93 in 10.0 mi SE 5.8 mph - N/A   Clear
8:15 AM 44.6 °F 40.7 °F 23.0 °F 43% 29.93 in 10.0 mi SE 6.9 mph - N/A   Clear
8:35 AM 46.4 °F 40.4 °F 24.8 °F 43% 29.92 in 10.0 mi SSE 13.8 mph - N/A   Clear
8:55 AM 46.4 °F 42.9 °F 24.8 °F 43% 29.92 in 10.0 mi SSE 6.9 mph - N/A   Mostly Cloudy
9:15 AM 46.4 °F 43.5 °F 24.8 °F 43% 29.91 in 10.0 mi SE 5.8 mph - N/A   Overcast
9:35 AM 46.4 °F 40.7 °F 26.6 °F 46% 29.91 in 10.0 mi South 12.7 mph - N/A   Overcast
9:55 AM 46.4 °F 43.5 °F 26.6 °F 46% 29.91 in 10.0 mi South 5.8 mph - N/A   Overcast
10:15 AM 46.4 °F 43.5 °F 26.6 °F 46% 29.91 in 10.0 mi SSW 5.8 mph - N/A   Overcast
10:35 AM 46.4 °F 42.4 °F 26.6 °F 46% 29.90 in 10.0 mi WSW 8.1 mph - N/A   Overcast
10:55 AM 50.0 °F - 28.4 °F 43% 29.90 in 10.0 mi WNW 17.3 mph - N/A   Overcast
11:15 AM 46.4 °F 42.9 °F 28.4 °F 50% 29.91 in 10.0 mi NW 6.9 mph - N/A   Overcast
11:35 AM 46.4 °F 40.7 °F 28.4 °F 50% 29.92 in 10.0 mi WSW 12.7 mph - N/A   Overcast
11:55 AM 46.4 °F 41.1 °F 30.2 °F 53% 29.92 in 10.0 mi SSW 11.5 mph 16.1 mph N/A   Overcast
12:15 PM 44.6 °F 37.8 °F 30.2 °F 57% 29.90 in 10.0 mi South 15.0 mph 18.4 mph N/A   Light Drizzle
12:35 PM 46.4 °F 40.4 °F 30.2 °F 53% 29.89 in 10.0 mi SSE 13.8 mph 18.4 mph N/A   Overcast
12:55 PM 48.2 °F - 30.2 °F 50% 29.88 in 10.0 mi SSE 12.7 mph 18.4 mph N/A   Overcast
1:15 PM 48.2 °F - 30.2 °F 50% 29.88 in 10.0 mi SSE 10.4 mph 20.7 mph N/A   Overcast
1:35 PM 50.0 °F - 28.4 °F 43% 29.87 in 10.0 mi South 11.5 mph 18.4 mph N/A   Mostly Cloudy
1:55 PM 51.8 °F - 26.6 °F 38% 29.86 in 10.0 mi SSE 12.7 mph 20.7 mph N/A   Mostly Cloudy
2:15 PM 51.8 °F - 23.0 °F 33% 29.85 in 10.0 mi South 18.4 mph 29.9 mph N/A   Overcast
2:35 PM 51.8 °F - 23.0 °F 33% 29.85 in 10.0 mi SSW 18.4 mph 25.3 mph N/A   Overcast
2:55 PM 51.8 °F - 21.2 °F 30% 29.85 in 10.0 mi SW 23.0 mph 28.8 mph N/A   Mostly Cloudy
3:15 PM 53.6 °F - 19.4 °F 26% 29.84 in 10.0 mi SSW 23.0 mph 34.5 mph N/A   Mostly Cloudy
3:35 PM 51.8 °F - 19.4 °F 28% 29.84 in 10.0 mi SW 20.7 mph 26.5 mph N/A   Scattered Clouds
3:55 PM 51.8 °F - 17.6 °F 26% 29.84 in 10.0 mi SW 25.3 mph 38.0 mph N/A   Clear
4:15 PM 50.0 °F - 15.8 °F 26% 29.85 in 10.0 mi SW 29.9 mph 36.8 mph N/A   Clear
4:35 PM 51.8 °F - 14.0 °F 22% 29.85 in 10.0 mi SW 27.6 mph 40.3 mph N/A   Clear
4:55 PM 51.8 °F - 17.6 °F 26% 29.85 in 10.0 mi SW 27.6 mph 39.1 mph N/A   Clear
5:15 PM 50.0 °F - 14.0 °F 24% 29.86 in 10.0 mi SW 31.1 mph 43.7 mph N/A   Clear
5:35 PM 48.2 °F - 15.8 °F 27% 29.86 in 10.0 mi SSW 32.2 mph 40.3 mph N/A   Clear
6:15 PM 46.4 °F 36.7 °F 17.6 °F 32% 29.89 in 10.0 mi WSW 33.4 mph 38.0 mph N/A   Clear
6:35 PM 46.4 °F 37.2 °F 19.4 °F 34% 29.89 in 10.0 mi WSW 29.9 mph 36.8 mph N/A   Clear
6:55 PM 44.6 °F 35.5 °F 23.0 °F 43% 29.90 in 10.0 mi WNW 25.3 mph 39.1 mph N/A   Scattered Clouds
7:15 PM 41.0 °F 30.7 °F 32.0 °F 70% 29.91 in 10.0 mi NNW 25.3 mph - N/A   Overcast
7:35 PM 39.2 °F 29.8 °F 32.0 °F 75% 29.92 in 10.0 mi NNW 18.4 mph - N/A   Overcast
7:55 PM 39.2 °F 30.2 °F 32.0 °F 75% 29.91 in 10.0 mi NNW 17.3 mph - N/A   Overcast
8:15 PM 37.4 °F 28.9 °F 32.0 °F 81% 29.93 in 10.0 mi NNW 13.8 mph - N/A   Scattered Clouds
8:35 PM 37.4 °F 29.8 °F 32.0 °F 81% 29.94 in 10.0 mi NNW 11.5 mph - N/A   Clear
8:55 PM 37.4 °F 28.5 °F 32.0 °F 81% 29.95 in 10.0 mi NW 15.0 mph - N/A   Clear
9:15 PM 37.4 °F 28.5 °F 32.0 °F 81% 29.96 in 10.0 mi NW 15.0 mph - N/A   Clear
9:35 PM 37.4 °F 29.3 °F 32.0 °F 81% 29.97 in 10.0 mi NW 12.7 mph - N/A   Clear
9:55 PM 37.4 °F 29.8 °F 32.0 °F 81% 29.99 in 10.0 mi NW 11.5 mph - N/A   Clear
10:15 PM 37.4 °F 30.3 °F 30.2 °F 75% 30.00 in 10.0 mi NNW 10.4 mph - N/A   Clear
10:35 PM 37.4 °F 32.1 °F 30.2 °F 75% 30.00 in 10.0 mi NNW 6.9 mph - N/A   Clear
10:55 PM 37.4 °F 34.9 °F 30.2 °F 75% 30.01 in 10.0 mi North 3.5 mph - N/A   Clear
11:15 PM 37.4 °F - 30.2 °F 75% 30.01 in 10.0 mi Calm Calm - N/A   Clear
11:35 PM 37.4 °F 34.9 °F 30.2 °F 75% 30.01 in 10.0 mi SE 3.5 mph - N/A   Clear
11:55 PM 37.4 °F 32.8 °F 28.4 °F 70% 30.01 in 10.0 mi SSE 5.8 mph - N/A   Clear